{"data":{"norad_id":65101,"intl_designator":"2025-167Z","name":"STARLINK-34285","alt_names":[],"object_type":"PAYLOAD","status":"ACTIVE","operator":null,"country":"US","launch_date":"2025-08-04","launch_site_code":"AFETR","launch_vehicle":null,"mission":null,"orbit_class":"UNKNOWN","rcs_meters":null,"size_class":null,"mass_kg":null,"dimensions":null,"purposes":["comms"],"wikipedia_slug":null,"has_3d_model":false,"image_url":null,"decayed_at":null,"tle_current":{"epoch":"2026-05-25T02:14:36.303936Z","epoch_age_seconds":60801,"freshness":"FRESH","line1":"1 65101U 25167Z   26145.09347574  .00020903  00000+0  62818-3 0  9992","line2":"2 65101  53.1600  31.3379 0001179  89.3678 270.7460 15.34393925 45183","mean_motion":15.34393925,"eccentricity":0.0001179,"inclination_deg":53.16,"raan_deg":31.3379,"arg_perigee_deg":89.3678,"mean_anomaly_deg":270.746,"bstar":0.00062818,"rev_number":4518,"period_min":93.848129645065,"perigee_km":461.91475925378,"apogee_km":463.52783364008,"semimajor_km":6840.8582964469,"source":"CELESTRAK","updated_at":"2026-05-25T13:38:20.687318Z"}}}